Location: Unspecified
(0.0000°N, 0.0000°E)
Time: 00:13:44
(UTC+00:00)

Vanguard 2 Rocket - All Passes

Search period start: 11 December 2016 00:00
Search period end: 21 December 2016 00:00
Orbit: 554 x 3328 km, 32.9° (Epoch: 09 December)

Date Brightness Start Highest point End Pass type
(mag) Time Alt. Az. Time Alt. Az. Time Alt. Az.
11 Dec - 01:44:15 10° SSW 01:56:51 26° SSE 02:12:08 10° ESE visible
11 Dec - 03:58:07 10° SW 04:16:56 61° SE 04:35:39 10° ENE visible
11 Dec - 06:15:45 10° WSW 06:36:00 65° NW 06:51:40 10° NE daylight
11 Dec - 08:40:53 10° W 08:53:57 24° NW 09:03:36 10° NNE daylight
11 Dec - 15:45:03 10° N 15:47:17 14° NNE 15:49:25 10° ENE daylight
11 Dec - 17:56:22 10° WNW 18:00:08 44° SSW 18:04:56 10° SE daylight
12 Dec - 00:45:23 10° SSW 00:54:31 18° SSE 01:05:50 10° ESE visible
12 Dec - 02:57:56 10° SW 03:14:36 47° SE 03:33:25 10° ENE visible
12 Dec - 05:13:43 10° WSW 05:33:58 82° NW 05:51:40 10° NE visible
12 Dec - 07:35:30 10° W 07:52:30 35° NW 08:05:06 10° NNE daylight
12 Dec - 16:57:16 10° NW 17:01:14 82° NE 17:05:32 10° ESE daylight
12 Dec - 19:13:08 10° SW 19:14:58 12° SSW 19:17:01 10° S visible
12 Dec - 23:47:52 10° S 23:52:22 12° SSE 23:57:33 10° SE visible
13 Dec - 01:58:20 10° SSW 02:12:25 35° SSE 02:29:53 10° E visible
13 Dec - 04:12:34 10° SW 04:31:44 80° SE 04:50:56 10° ENE visible
13 Dec - 06:31:35 10° WSW 06:50:44 48° NW 07:05:56 10° NE daylight
13 Dec - 09:00:02 10° WNW 09:09:38 17° NNW 09:17:15 10° N daylight
13 Dec - 15:58:23 10° NW 16:02:20 34° NNE 16:05:58 10° E daylight
13 Dec - 18:12:26 10° WSW 18:15:19 18° SSW 18:18:41 10° SSE visible
14 Dec - 00:59:22 10° SSW 01:10:27 25° SSE 01:24:49 10° E visible
14 Dec - 03:12:10 10° SW 03:29:30 63° SE 03:49:18 10° ENE visible
14 Dec - 05:28:56 10° WSW 05:48:41 63° NW 06:06:09 10° NE visible
14 Dec - 07:53:17 10° W 08:07:49 25° NNW 08:19:04 10° NNE daylight
14 Dec - 14:59:41 10° NNW 15:03:08 19° NNE 15:06:03 10° ENE daylight
14 Dec - 17:12:29 10° W 17:16:08 34° SSW 17:20:02 10° SSE daylight
15 Dec - 00:01:15 10° S 00:08:40 17° SSE 00:18:00 10° ESE visible
15 Dec - 02:12:27 10° SW 02:27:29 48° SE 02:46:36 10° ENE visible
15 Dec - 04:27:21 10° WSW 04:46:25 80° NW 05:05:43 10° NE visible
15 Dec - 06:48:17 10° W 07:05:48 36° NNW 07:20:02 10° NNE daylight
15 Dec - 09:20:22 10° NW 09:25:57 12° NNW 09:30:45 10° N daylight
15 Dec - 14:01:14 10° N 14:03:29 12° NNE 14:05:27 10° NE daylight
15 Dec - 16:12:53 10° WNW 16:17:15 82° SW 16:21:12 10° SE daylight
16 Dec - 01:13:19 10° SSW 01:25:45 35° SE 01:42:37 10° E visible
16 Dec - 03:26:40 10° SW 03:44:12 82° SE 04:04:31 10° ENE visible
16 Dec - 05:44:48 10° WSW 06:03:35 48° NW 06:20:24 10° NE daylight
16 Dec - 08:12:13 10° WNW 08:23:45 19° NNW 08:33:04 10° NNE daylight
16 Dec - 15:13:26 10° NW 15:18:19 44° NNE 15:22:08 10° ESE daylight
16 Dec - 17:29:02 10° WSW 17:31:10 14° SSW 17:33:24 10° S daylight
17 Dec - 00:14:53 10° SSW 00:24:20 23° SE 00:37:11 10° E visible
17 Dec - 02:26:42 10° SW 02:42:12 64° SE 03:02:26 10° ENE visible
17 Dec - 04:42:37 10° WSW 05:01:14 62° NW 05:20:09 10° NE visible
17 Dec - 07:06:01 10° WNW 07:21:22 26° NNW 07:34:07 10° NNE daylight
17 Dec - 09:41:37 10° NNW 09:42:45 10° NNW 09:43:52 10° N daylight
17 Dec - 14:13:58 10° NNW 14:19:00 25° NNE 14:22:44 10° E daylight
17 Dec - 16:28:17 10° W 16:32:04 29° SW 16:35:34 10° SSE daylight
17 Dec - 23:17:36 10° S 23:23:08 14° SSE 23:29:57 10° ESE visible
18 Dec - 01:27:24 10° SSW 01:40:36 48° SE 01:59:18 10° ENE visible
18 Dec - 03:41:30 10° WSW 03:58:54 78° NW 04:19:14 10° NE visible
18 Dec - 06:01:31 10° W 06:18:52 36° NNW 06:34:31 10° NNE daylight
18 Dec - 08:31:52 10° NW 08:40:19 15° NNW 08:47:25 10° NNE daylight
18 Dec - 13:14:18 10° NNW 13:19:14 18° NNE 13:22:55 10° ENE daylight
18 Dec - 15:28:05 10° WNW 15:33:14 70° SW 15:37:10 10° SE daylight
19 Dec - 00:28:41 10° SSW 00:39:26 33° SE 00:55:02 10° E visible
19 Dec - 02:41:14 10° SW 02:56:50 84° SE 03:17:35 10° NE visible
19 Dec - 04:58:33 10° W 05:16:18 46° NNW 05:34:22 10° NE visible
19 Dec - 07:24:44 10° WNW 07:37:36 20° NNW 07:48:25 10° NNE daylight
19 Dec - 09:58:10 10° N 09:59:46 10° N 10:01:17 10° N daylight
19 Dec - 12:14:15 10° NNW 12:18:57 15° NNE 12:22:39 10° NE daylight
19 Dec - 14:27:59 10° NW 14:34:14 57° NNE 14:38:27 10° ESE daylight
19 Dec - 16:45:20 10° WSW 16:46:57 12° SW 16:48:29 10° S daylight
19 Dec - 23:30:43 10° S 23:38:34 21° SE 23:49:26 10° E visible
20 Dec - 01:41:40 10° SW 01:55:12 65° SE 02:15:07 10° ENE visible
20 Dec - 03:56:50 10° WSW 04:13:49 59° NW 04:33:37 10° NE visible
20 Dec - 06:19:10 10° WNW 06:34:43 27° NNW 06:48:44 10° NNE daylight
20 Dec - 08:50:53 10° NNW 08:57:21 13° N 09:02:54 10° NNE daylight
20 Dec - 11:13:27 10° NNW 11:18:08 13° N 11:21:57 10° NE daylight
20 Dec - 13:27:46 10° NW 13:34:48 34° NNE 13:39:22 10° E daylight
20 Dec - 15:43:38 10° W 15:47:57 27° SW 15:51:25 10° SSE daylight
20 Dec - 22:34:41 10° SSE 22:37:53 12° SE 22:41:33 10° SE visible
